FENGYUN 1C DEB

Satellite information

Favourite Embed

Satellite Type and Status

DEBRISIN ORBIT

Key statistics

Satellite FENGYUN 1C DEB at a glance.

Uptime

9714

Days in orbit

Revolutions

≈ 14.2

Per day

Orbit

SSO

Sun Synchronous Orbit

Inclination

99.6

Latest

Satellite identification and parameters

Extended collection of information and parameters for FENGYUN 1C DEB.

Object identification

Identified? True

Debris? True

Object name: FENGYUN 1C DEB

International designator: 1999-025DXA

Object number (NORAD): 36273

Object ID (CCSDS): 36273

Country: PEOPLES REPUBLIC OF CHINA (PRC)

Current information (Y/N): Y

RCS size: SMALL

Orbital parameters

Period: 101.654 minutes

Inclination: 99.6045 deg

SMA: 7215.133 km

Apoapsis: 906.625 km

Periapsis: 767.372 km

RAAN: 214.1863 deg

Eccentricy: 0.0096501

Argument of periapsis: 353.8475 deg

Mean anomaly: 6.1504 deg

Mean motion: 14.16564043 rev/day

Mean motion (dot): 0.00000845 rev/day2

B* drag term: 0.00042955 1/REarth

Two-line elements (TLE)

Creation date: Dec. 11, 2025, 7:36 a.m.

Reference frame: TEME

Reference center: EARTH

Epoch: Dec. 10, 2025, 9:07 p.m. UTC

TLE line 0: 0 FENGYUN 1C DEB

TLE line 1: 1 36273U 99025DXA 25344.87986595 .00000845 00000-0 42955-3 0 9996

TLE line 2: 2 36273 99.6045 214.1863 0096501 353.8475 6.1504 14.16564043662078

Live tracking on map

Real-time ground track for satellite FENGYUN 1C DEB.

In-orbit conjunctions

A list of the most updated potential collisions computed for object FENGYUN 1C DEB.

Target Orbit TCA Probability of collision Miss distance Type
DELTA 1 DEB SSO 2025-11-10 00:30:37 0.0001385016 157.0 (m) DEBRIS
COSMOS 494 LEO 2025-07-16 11:21:29 0.0001176607 417.0 (m) PAYLOAD
COSMOS 1174 LEO 2025-03-04 22:42:49 0.0002673356 381.0 (m) PAYLOAD
FENGYUN 1C DEB SSO 2024-12-27 17:48:47 0.0002688019 55.0 (m) DEBRIS

Associated space launch

Chinese polar orbiting meteorological satellite

FENGYUN 1C DEB was lifted into orbit during the mission ‘Long March 4B | Feng Yun 1C’, on board a Long March 4B space rocket.

The launch took place on May 10, 1999, 1:33 a.m. from Launch Complex 7.

For more information about the launch, click the button.

Launch to space Long March 4B | Feng Yun 1C
Long March 4B | Feng Yun 1C

Agency: N/A

Status: Launch Successful

Launch date: May 10, 1999, 1:33 a.m. UTC

Rocket: Long March 4B

Launch pad: Launch Complex 7

Location: Taiyuan Satellite Launch Center, People's Republic of China

...

Latest news about this satellite

There are no fresh news available about this satellite. Check back as we update our databases every day.


Newsletter sign-up

Weekly statistics, charts and insights to help you stay on top of the space industry.